This is the latest recevied weather packets stored in our database for station/object EA1JAV-10. If no packets are shown the sender has not sent any weather packets the latest 10 day(s).
| Time | Temp. | Humidity | Pressure | Rain* | Wind** | Luminosity | Snow |
|---|---|---|---|---|---|---|---|
| 1778164010 | 21.11° C | 42% | 994.7 hPa | - | - | - | - |
| 1778162210 | 20.56° C | 42% | 994.9 hPa | - | - | - | - |
| 1778160410 | 20.56° C | 42% | 994.9 hPa | - | - | - | - |
| 1778158610 | 20° C | 43% | 995.2 hPa | - | - | - | - |
| 1778156810 | 19.44° C | 43% | 995.2 hPa | - | - | - | - |
| 1778155010 | 18.89° C | 44% | 995.6 hPa | - | - | - | - |
| 1778153210 | 18.33° C | 44% | 995.9 hPa | - | - | - | - |
| 1778151410 | 18.33° C | 44% | 995.9 hPa | - | - | - | - |
| 1778149610 | 17.78° C | 45% | 996 hPa | - | - | - | - |
| 1778147809 | 17.22° C | 45% | 996.2 hPa | - | - | - | - |
| 1778146010 | 17.22° C | 45% | 996.1 hPa | - | - | - | - |
| 1778144209 | 17.22° C | 46% | 996.3 hPa | - | - | - | - |
| 1778142409 | 16.67° C | 46% | 996.6 hPa | - | - | - | - |
| 1778140609 | 16.67° C | 46% | 996.8 hPa | - | - | - | - |
| 1778138809 | 17.22° C | 46% | 997 hPa | - | - | - | - |
| 1778137009 | 17.22° C | 46% | 997.1 hPa | - | - | - | - |
| 1778135209 | 17.22° C | 46% | 997.1 hPa | - | - | - | - |
| 1778133408 | 16.67° C | 46% | 997.2 hPa | - | - | - | - |
| 1778131608 | 16.67° C | 46% | 998.2 hPa | - | - | - | - |
| 1778129808 | 16.67° C | 46% | 997.2 hPa | - | - | - | - |
| 1778128007 | 17.22° C | 45% | 997.5 hPa | - | - | - | - |
| 1778124406 | 17.22° C | 46% | 997.6 hPa | - | - | - | - |
| 1778122606 | 17.22° C | 46% | 997.6 hPa | - | - | - | - |
| 1778120806 | 17.78° C | 45% | 997.8 hPa | - | - | - | - |
| 1778119006 | 17.78° C | 46% | 998 hPa | - | - | - | - |
* Rain since midnight (hover to see other rain measurements)
** Current wind speed in m/s (hover to see current wind gust speed)